OBJECT Y, 69002

Orbit data source: Space-Track

You're viewing an Uncataloged Satellite

Recently launched and/or uncataloged satellites may have evolving metadata. Metadata may include but not limited to: Owner, Maufacturer, Bus, Motor, and Mission.

OBJECT Y, 69002 is a satellite in SSO that was launched on Sun, 03 May 2026 UTC launched from the Air Force Western Test Range (AFWTR). Unknown objects in Earth's orbit typically refer to objects detected orbiting the Earth but have not yet been identified or cataloged. These objects could be anything from previously untracked satellites, spent rocket stages, debris from satellite collisions, or even natural meteoroids temporarily captured by Earth's gravity.

Loading next visibility...
Identifier
69002, 2026-100Y
Orbit
SSO
Country
Flag of TBDTBD
Related business
None
Manufacturer
Unknown
Mission
Operational spacecraft
Bus & Motor
Unknown
Mass
Unknown
Launch date (UTC)
2026-05-03 (1 week ago)
Launch vehicle
Unknown
Launch site
Air Force Western Test Range (AFWTR)
Object type
Unknown
Shape & HBR
Unknown
Radar Cross Section
RCS unknown

Expand to show TLE details & history
Last TLE update: 7 hours ago

TLE from 7 hours ago
0 OBJECT Y
1 69002U 26100Y   26130.16668980  .00039812  00000-0  34886-2 0  9996
2 69002  97.7016  27.1896 0016538  92.7237 242.5447 14.96429330  1308
Epoch: 2026-05-10T04:00Z
TLE epoch observation values (Epoch: 2026-05-10T04:00:01.998Z)
Latitude
-24.90819°
Longitude
102.78834°
Altitude
592.659 km
Speed
7.56 km/s
True Right ascension
02h 03m 04s
True Declination
-24° 46' 26"
Sunlit
Object was in daylight at epoch
Visualization orbit readout
Latitude
Unknown
Longitude
Unknown
Altitude
Unknown
Speed
Unknown
Apparent Right ascension
Unknown
Apparent Declination
Unknown
Sunlit
N/A
Visualization observer readout
Local Sidereal Time
18:56:06
Azimuth
Unknown
Elevation
Unknown
Doppler factor
Unknown
Orbital elements
Apogee altitude
586.449 km
Perigee altitude
563.451 km
Semi-major axis
6,953.087 km
Eccentricity
0.00165
Inclination
97.7016°
RAAN
27.1896°
Arg. of periapsis
92.7237°
True anomaly
242.37669°
Mean anomaly
242.5447°
Eccentric anomaly
242.46068°
Mean motion
3.74349 °/min
Orbital period
96.17 mins
BSTAR
0.0034886
Loading maneuver chart data...
Computing Atmospheric mass density...
Loading historical data...
Loading historical data...
Loading historical data...
Loading historical data...
Loading historical data...
Loading historical data...
Loading historical data...

Documentation

Showing up to 5 results
|